Location: San Antonio
(29.4240°N, 98.4930°W)
Time: 08:28:52
(UTC-06:00)

ISS - All Passes

Search period start: 20 December 2014 00:00
Search period end: 30 December 2014 00:00
Orbit: 404 x 415 km, 51.6° (Epoch: 20 December)

Date Brightness Start Highest point End Pass type
(mag) Time Alt. Az. Time Alt. Az. Time Alt. Az.
20 Dec - 12:48:02 10° SSW 12:51:07 37° SE 12:54:12 10° ENE daylight
20 Dec - 14:25:47 10° WNW 14:27:48 15° NW 14:29:48 10° N daylight
20 Dec - 20:57:32 10° NNW 21:00:26 28° NE 21:03:18 10° ESE night (unlit)
20 Dec - 22:34:44 10° W 22:36:47 16° SW 22:38:50 10° SSW night (unlit)
21 Dec - 11:58:14 10° S 12:00:29 17° SE 12:02:45 10° E daylight
21 Dec - 13:34:01 10° WSW 13:36:53 27° NW 13:39:46 10° NNE daylight
21 Dec - 20:07:26 10° N 20:09:31 16° NE 20:11:35 10° ENE night (unlit)
21 Dec - 21:43:10 10° WNW 21:46:09 34° SW 21:49:08 10° SSE night (unlit)
22 Dec - 12:42:46 10° SW 12:46:01 57° NW 12:49:17 10° NE daylight
22 Dec - 20:52:08 10° NW 20:55:24 83° SW 20:58:39 10° SE night (unlit)
23 Dec - 11:51:56 10° SSW 11:55:11 59° SE 11:58:27 10° NE daylight
23 Dec - 13:30:54 10° NW 13:32:01 11° NW 13:33:07 10° NNW daylight
23 Dec - 20:01:24 10° NNW 20:04:32 42° NE 20:07:38 10° ESE visible
23 Dec - 21:40:08 10° WSW 21:40:45 10° SW 21:41:21 10° SW night (unlit)
24 Dec - 11:01:35 10° S 11:04:23 25° SE 11:07:10 10° ENE daylight
24 Dec - 12:38:24 10° W 12:40:54 20° NW 12:43:25 10° N daylight
24 Dec - 19:10:56 10° NNW 19:13:31 21° NE 19:16:05 10° E visible
24 Dec - 20:47:22 10° WNW 20:50:00 22° SW 20:52:36 10° S night (unlit)
25 Dec - 10:12:15 10° SSE 10:13:35 12° SE 10:14:56 10° E daylight
25 Dec - 11:46:44 10° WSW 11:49:51 38° NW 11:52:57 10° NNE daylight
25 Dec - 18:21:01 10° N 18:22:22 12° NE 18:23:42 10° ENE visible
25 Dec - 19:55:57 10° NW 19:59:08 52° SW 20:02:18 10° SSE visible
26 Dec - 10:55:31 10° SW 10:58:49 88° NW 11:02:08 10° NE daylight
26 Dec - 19:04:54 10° NW 19:08:09 64° NE 19:11:23 10° SE visible
27 Dec - 10:04:45 10° SSW 10:07:50 38° SE 10:10:56 10° ENE daylight
27 Dec - 11:42:31 10° WNW 11:44:30 15° NW 11:46:28 10° N daylight
27 Dec - 18:14:07 10° NNW 18:17:02 29° NE 18:19:56 10° ESE visible
27 Dec - 19:51:22 10° W 19:53:22 15° SW 19:55:23 10° SSW visible
28 Dec - 09:14:35 10° S 09:16:52 18° SE 09:19:09 10° E daylight
28 Dec - 10:50:23 10° WSW 10:53:14 27° NW 10:56:06 10° NNE daylight
28 Dec - 17:23:41 10° N 17:25:47 16° NE 17:27:53 10° ENE daylight
28 Dec - 18:59:25 10° WNW 19:02:24 33° SW 19:05:22 10° SSE visible
29 Dec - 09:58:47 10° SW 10:02:02 57° NW 10:05:17 10° NE daylight
29 Dec - 18:08:02 10° NW 18:11:18 82° SW 18:14:33 10° SE visible
